Location: London
(51.5074°N, 0.1278°W)
Time: 22:50:16
(UTC+01:00)

DELFI C3 - Pass Details

Date: 05 October 2020
Orbit: 535 x 549 km, 97.4° (Epoch: 22 October)

Event Time Altitude Azimuth Distance (km) Brightness Sun altitude
Exits shadow 21:03:01 41° 223° (SW) 802 ? -24.4°
Maximum altitude 21:03:50 48° 261° (W) 719 ? -24.5°
Drops below altitude 10° 21:07:41 10° 337° (NNW) 1,833 ? -25.1°
Sets 21:09:53 0° 343° (NNW) 2,734 ? -25.4°
